Tracking 28790 objects as of 19-Apr-2024
HD Live streaming from Space Station
objects crossing your sky now

STARLINK-6091

Track STARLINK-6091 now!
10-day predictions
STARLINK-6091 is classified as:


NORAD ID: 56119
Int'l Code: 2023-046AC
Perigee: 565.1 km
Apogee: 567.3 km
Inclination: 43.0 °
Period: 95.8 minutes
Semi major axis: 6937 km
RCS: Unknown
Launch date: March 29, 2023
Source: United States (US)
Launch site: AIR FORCE EASTERN TEST RANGE (AFETR)
Your satellite tracking list
Your tracking list is empty




NASA's NSSDC Master Catalog

Two Line Element Set (TLE):
1 56119U 23046AC  24109.55617362  .00004609  00000-0  35610-3 0  9995
2 56119  43.0027 296.3352 0001610 247.6454 112.4218 15.02532090 58391
Source of the keplerian elements: AFSPC